RH
4 4 3 4 4 4 4 4 4 4 5 5 5 5 4 4 4 3 3 3 3 3 2 3 2 2 2 2 2 2 1 2 2 2 3 3 4 4 5 6 6 8 8 8 9 10 11 11 13 13 12 13 12 12 11 11 10 9 8 6 7 5 9 12 17 30 35 38 36 27 28 29 28 26 25 29 27 17 9 9 6 8 26 42 55 65 57 50
5 5 4 4 4 4 4 4 4 5 5 5 5 5 4 4 4 4 3 3 3 3 3 3 2 3 2 2 2 2 2 2 1 3 4 4 5 6 7 8 8 10 10 11 11 12 13 13 14 13 14 14 13 14 12 13 11 10 9 7 8 5 15 23 22 34 37 36 38 34 34 31 31 32 28 34 32 18 12 10 4 12 35 47 53 67 75 71
6 5 5 4 4 4 4 4 5 5 5 5 5 5 4 4 4 4 4 3 3 3 3 3 2 2 2 2 2 2 2 1 3 7 7 4 7 8 10 11 12 13 13 14 14 15 16 16 15 14 15 14 14 15 14 15 12 11 9 7 8 7 22 30 26 34 38 41 40 37 38 35 35 33 29 35 37 29 16 7 8 17 34 49 59 71 77 71
6 6 5 5 5 5 5 5 5 5 5 5 5 5 5 4 4 4 4 3 3 3 3 3 3 2 2 2 2 2 1 2 7 12 10 8 11 13 13 15 16 16 16 17 17 17 18 18 17 17 16 16 16 15 14 15 13 13 10 9 10 11 26 35 37 45 45 48 45 38 36 35 36 32 25 26 31 32 21 13 14 19 32 48 61 71 74 69
6 6 5 5 5 5 5 5 5 5 5 5 5 5 5 4 4 4 4 4 4 3 3 3 3 2 2 2 2 2 1 5 14 18 17 16 18 19 19 20 21 21 20 20 21 21 20 20 19 18 17 17 18 16 16 16 15 14 11 11 11 13 30 38 42 48 45 48 48 42 37 36 37 32 25 20 19 21 18 20 24 33 45 51 59 64 65 69
6 6 5 5 5 5 5 4 5 5 5 5 5 5 5 5 4 4 4 4 4 3 3 3 3 3 3 3 2 2 2 6 16 23 25 25 25 25 25 25 25 25 25 24 25 24 23 22 21 20 20 19 18 17 18 18 16 15 13 14 13 16 35 41 36 38 41 45 46 43 41 36 30 30 29 18 13 13 11 23 43 62 62 51 59 66 65 68
6 6 5 5 5 4 5 4 4 5 5 5 5 5 5 5 5 5 4 4 4 4 4 3 3 3 3 2 2 3 2 5 15 21 26 32 31 29 29 29 29 29 28 28 27 27 26 24 23 22 22 21 20 19 20 20 17 15 14 15 14 16 36 44 33 33 36 37 40 40 38 35 28 29 32 19 12 14 10 20 50 74 73 60 59 68 74 73
7 6 5 5 5 4 4 4 4 5 5 5 5 5 5 5 5 5 5 5 4 4 4 4 3 3 3 3 3 3 3 9 16 19 26 38 42 40 37 32 31 31 29 29 29 28 27 26 25 24 23 22 22 21 20 21 18 16 14 16 17 15 34 46 35 33 30 21 23 25 26 33 32 24 29 25 12 17 19 18 37 60 70 73 71 74 80 78
7 6 5 5 5 4 4 4 5 5 5 5 5 5 5 5 5 5 5 5 5 4 4 4 4 3 3 3 3 3 5 12 19 23 31 41 49 51 48 42 36 33 30 29 29 29 28 27 26 24 24 23 23 22 21 21 18 18 16 17 19 15 28 42 36 34 35 28 19 14 20 31 30 19 27 31 9 11 25 20 29 48 65 79 84 87 89 86
7 6 6 5 5 5 4 4 5 4 5 5 5 5 5 6 6 6 6 5 5 5 5 4 4 4 4 4 4 4 6 11 17 24 34 44 48 48 48 48 45 40 35 31 28 29 28 27 26 25 24 24 23 22 21 20 19 19 18 17 20 17 21 35 38 34 43 46 25 9 15 21 22 17 23 29 11 9 25 24 21 32 60 81 84 91 97 92
8 7 6 5 5 5 5 4 5 5 5 5 5 5 5 6 6 6 6 6 6 5 5 5 4 4 4 5 5 5 6 8 13 21 33 44 45 43 46 47 48 48 44 37 31 28 28 27 26 25 24 24 23 23 21 21 20 19 19 17 18 19 18 27 36 32 34 37 19 7 11 14 15 13 17 22 15 11 17 25 29 34 56 73 79 91 96 89
8 7 6 5 5 5 5 4 5 5 5 5 5 6 6 6 6 6 6 6 6 6 6 5 5 5 5 7 6 6 6 6 11 17 27 40 43 42 46 46 48 50 48 46 39 30 28 27 27 25 24 24 22 23 21 20 21 19 19 17 18 19 17 19 25 26 25 20 13 11 12 13 13 12 15 17 15 16 14 15 28 45 55 63 83 93 85 88
8 8 6 6 5 5 5 4 5 5 5 5 5 6 6 6 6 6 6 7 7 6 7 6 5 5 5 8 6 6 7 7 10 13 18 32 41 40 43 45 47 49 48 48 46 38 30 26 27 26 24 24 22 22 22 21 20 20 19 19 18 18 16 16 17 20 20 15 12 14 13 13 14 12 14 15 14 21 23 12 10 26 36 49 79 86 71 86
9 8 7 7 5 5 5 5 5 5 5 6 6 6 6 6 6 7 7 7 7 7 8 7 6 6 6 8 7 6 8 8 10 14 16 23 31 35 39 42 43 46 46 46 47 44 36 29 27 26 25 24 23 22 22 21 20 20 19 19 18 17 16 16 16 18 18 15 14 16 15 12 13 14 14 16 13 18 32 25 7 6 12 21 42 51 54 80
10 9 7 7 6 6 5 5 5 5 6 6 6 7 6 7 7 7 7 7 7 8 8 8 7 6 6 8 8 8 8 9 10 13 17 20 23 29 36 39 39 40 43 44 45 45 42 35 28 26 26 24 24 23 22 22 21 20 19 18 18 17 17 16 16 17 18 17 16 16 17 14 13 15 15 16 16 29 51 41 14 5 7 8 11 18 32 58
10 9 8 7 7 7 6 5 6 6 7 7 7 7 7 7 7 7 8 7 8 8 8 9 9 8 7 9 9 8 8 9 11 11 17 24 26 32 37 38 38 36 40 44 45 44 44 41 33 28 26 25 24 23 22 22 20 20 20 18 18 17 17 17 16 17 17 17 17 17 17 15 15 16 17 16 18 35 48 37 16 7 8 10 10 11 19 38
11 10 8 8 7 7 7 6 6 6 7 8 8 8 7 7 7 7 7 7 8 8 9 9 10 9 8 10 9 9 9 11 13 14 21 30 33 38 43 45 44 38 37 43 47 46 44 44 40 32 28 26 24 23 22 21 21 20 18 18 18 18 17 16 16 16 16 16 16 16 16 16 16 17 19 20 29 39 39 32 20 9 9 12 14 14 17 35
13 11 9 8 7 7 8 8 8 7 7 8 8 8 8 7 7 7 7 8 8 9 9 10 11 12 12 12 10 9 11 11 14 21 29 36 40 43 47 50 51 46 40 41 47 47 45 45 43 37 32 28 25 24 22 21 20 17 17 17 16 16 15 15 16 15 16 18 18 20 20 17 15 20 25 28 41 46 42 38 22 10 12 11 13 19 22 29
14 13 11 10 9 8 8 8 8 9 9 9 9 9 8 7 7 7 7 8 9 10 10 10 12 15 14 13 11 11 14 12 17 30 37 40 45 48 50 51 52 51 44 43 48 48 45 44 42 40 35 31 28 25 23 20 17 15 17 20 21 23 20 17 16 14 22 28 28 32 34 25 19 22 25 31 45 48 49 50 31 21 26 20 15 19 24 28
15 14 13 12 10 9 8 8 8 9 10 10 11 11 9 8 7 7 8 9 10 10 10 11 14 17 17 14 12 12 16 16 20 32 40 44 50 52 53 54 53 50 44 44 50 49 46 43 41 40 37 35 30 24 22 17 15 14 16 22 33 46 43 26 17 18 29 37 34 36 40 36 30 28 27 35 52 58 58 57 42 38 43 34 22 16 21 31
20 18 16 14 12 11 9 8 8 8 9 10 11 12 11 9 8 7 8 9 11 11 11 12 13 18 21 18 16 14 15 16 22 33 39 45 53 52 52 54 52 51 48 48 49 49 46 42 41 40 37 33 25 20 18 15 14 13 16 20 29 55 62 36 22 30 38 40 38 36 38 40 36 34 33 36 50 62 62 55 46 44 46 37 24 18 21 29
20 20 18 17 15 12 10 9 8 8 9 10 11 12 11 9 8 8 8 10 13 12 12 13 13 20 24 21 20 17 15 16 27 40 39 41 51 52 51 51 50 50 51 49 47 46 43 41 41 35 30 26 20 17 15 14 13 12 17 16 21 50 61 37 27 39 45 41 39 39 39 43 42 37 34 34 46 61 66 61 49 41 43 47 43 30 18 21
19 19 18 17 15 13 11 10 9 9 8 9 10 11 10 9 8 8 8 9 13 13 13 14 13 16 21 25 26 21 18 17 28 44 43 42 51 52 50 50 50 48 48 48 46 45 42 38 34 25 20 18 17 16 14 14 12 13 16 13 26 51 55 45 40 42 46 42 38 40 45 49 48 40 32 33 44 54 61 67 62 48 42 51 55 38 16 15
20 20 19 17 16 14 11 10 9 9 9 9 10 10 10 10 8 8 9 8 12 14 14 15 15 17 22 27 25 23 26 24 27 38 43 48 52 50 48 50 50 48 46 46 45 45 37 30 26 20 16 15 16 16 14 14 11 13 14 12 36 57 55 62 61 52 53 48 42 43 49 53 50 41 30 29 36 39 44 53 59 56 47 43 42 33 21 18
24 23 22 21 19 17 14 13 11 9 9 8 8 9 9 11 10 8 9 8 11 13 14 15 14 18 23 23 21 24 31 32 33 35 37 47 53 49 48 49 49 47 45 42 41 40 29 23 23 17 15 16 16 16 14 14 11 12 12 13 44 62 55 61 62 59 64 58 54 53 50 51 50 42 30 28 33 31 34 39 43 47 42 36 31 29 29 23
28 28 27 26 25 23 21 21 18 12 10 10 10 10 8 9 10 9 9 10 11 12 15 16 15 22 26 23 24 27 29 31 36 37 35 43 49 48 49 49 46 45 42 37 35 33 23 19 19 18 22 19 15 17 15 15 12 11 12 17 50 65 52 54 54 57 71 69 64 61 52 51 55 49 37 41 52 48 43 45 45 37 26 28 28 26 27 24
32 33 31 30 30 31 30 30 27 19 15 19 22 16 10 9 8 8 9 9 12 14 14 13 16 28 34 32 32 33 31 31 33 35 35 40 44 45 47 47 46 43 39 36 32 28 22 19 18 26 35 26 20 24 19 16 12 11 12 19 51 65 52 55 55 53 71 78 68 62 55 50 53 53 45 48 58 58 55 55 53 34 15 23 31 30 33 28
42 41 39 37 38 38 37 36 36 29 23 29 33 24 17 15 10 10 10 10 18 22 21 20 21 26 29 30 36 40 39 34 32 34 35 36 39 41 44 45 43 37 34 34 31 28 27 24 20 26 32 26 27 32 22 14 11 11 12 15 40 57 50 61 70 63 75 86 76 66 58 50 51 53 46 43 44 52 63 65 57 33 16 27 38 43 43 30
46 45 44 43 44 45 43 40 42 38 31 34 37 32 28 25 19 17 15 15 24 28 28 33 33 33 32 30 36 43 41 38 37 36 35 35 36 38 39 40 38 32 30 32 29 29 33 34 29 26 24 21 26 29 19 13 13 12 12 13 25 34 39 60 76 79 84 83 74 67 56 46 50 53 47 45 44 51 68 73 59 37 29 41 51 52 43 34
46 44 44 43 44 46 45 44 45 41 38 39 40 36 33 32 30 27 24 22 28 31 28 31 36 41 42 40 44 44 39 40 42 38 34 34 35 37 37 36 35 30 27 29 27 25 32 45 47 34 22 22 26 24 16 15 15 11 11 18 25 28 40 56 66 81 87 71 62 70 67 51 49 55 55 59 62 63 76 81 62 44 46 60 66 60 46 44
43 42 41 40 40 42 42 43 44 42 41 41 41 39 35 36 34 29 29 28 30 35 31 30 35 39 40 46 55 53 44 43 44 38 34 35 35 35 35 36 37 34 28 27 27 25 33 49 53 41 27 23 25 21 18 16 15 16 22 33 44 54 62 56 50 65 75 67 62 70 77 63 50 58 66 67 70 71 78 79 63 53 61 74 75 64 50 44
36 35 34 34 33 34 34 34 36 38 39 39 40 40 38 38 33 28 33 34 39 49 47 45 44 39 39 44 48 49 45 45 47 40 34 35 37 37 36 34 33 33 32 31 29 28 32 34 34 36 35 31 28 21 19 20 22 35 45 45 54 73 78 65 52 47 51 66 69 57 60 59 49 63 79 77 78 81 79 76 73 70 71 77 76 66 57 48
21 20 19 18 18 19 18 18 20 23 27 30 34 35 36 37 33 34 39 40 53 66 63 64 70 67 65 61 54 49 44 43 47 44 40 41 42 40 38 36 31 30 34 39 36 32 34 31 24 27 30 32 31 22 20 32 41 51 56 46 48 68 81 81 74 54 42 52 51 41 50 58 55 64 76 80 85 85 79 76 77 74 68 72 75 72 71 63
8 8 7 7 7 7 6 7 7 8 11 14 18 23 29 32 32 36 40 43 57 68 66 73 88 92 89 84 79 69 60 56 50 44 50 58 55 46 39 36 34 31 32 42 43 36 35 35 29 26 26 29 30 22 22 41 64 72 63 46 44 62 79 86 89 79 62 51 47 55 66 66 66 67 64 69 78 80 83 81 77 76 73 71 74 79 82 74
4 4 4 4 4 4 4 4 4 4 4 5 6 10 14 17 19 24 32 40 51 60 68 76 85 92 93 93 94 84 74 76 74 62 59 62 62 57 46 38 38 34 32 41 48 44 38 33 34 35 34 31 29 29 27 37 67 84 69 46 39 55 75 83 87 87 81 73 72 84 86 74 77 79 71 75 78 78 85 83 77 81 78 66 66 77 78 67
4 4 4 4 5 5 5 5 5 4 4 4 4 4 5 6 7 10 19 33 46 55 64 71 78 84 86 88 93 91 85 87 92 88 76 67 69 70 61 47 40 35 35 40 49 58 54 44 43 46 48 42 31 32 34 36 57 67 57 49 42 52 76 89 89 82 79 84 83 84 85 78 79 78 72 75 76 74 77 76 74 77 75 69 68 70 65 55
5 5 5 5 6 6 5 6 5 5 5 4 4 4 4 4 4 4 7 19 39 54 57 63 77 86 89 93 93 92 93 90 90 96 93 86 81 79 75 63 50 42 42 45 50 60 61 55 56 60 70 73 54 39 37 43 59 62 61 65 56 58 76 86 92 90 83 86 83 78 81 81 82 85 79 71 68 75 83 80 75 70 68 69 68 64 62 56
7 7 7 6 7 6 7 7 6 6 6 5 5 5 5 4 4 4 3 9 28 47 54 63 80 90 96 102 98 92 97 94 89 92 95 90 86 84 85 83 74 61 55 57 61 63 59 56 60 66 79 89 75 52 39 41 54 63 75 82 68 68 79 75 82 92 89 88 84 79 83 82 78 82 80 68 63 76 87 82 73 69 66 65 65 68 72 68
7 7 6 6 5 5 6 6 5 5 5 5 6 5 6 5 4 5 4 5 16 38 59 74 86 94 96 100 99 98 101 99 92 95 94 86 84 89 92 90 86 75 65 62 63 67 64 56 59 67 75 84 77 60 51 53 55 58 76 92 81 76 82 76 77 84 87 89 85 84 86 77 69 73 74 71 72 81 84 74 63 59 60 63 67 69 72 72
6 6 6 6 6 7 10 11 10 9 7 8 7 7 9 7 6 6 4 4 12 38 71 87 91 94 95 99 101 99 101 99 93 96 96 85 80 88 93 90 88 87 82 73 66 67 65 57 60 70 75 81 83 75 73 79 79 71 79 93 92 87 84 80 78 81 87 90 88 90 88 74 71 77 73 68 72 80 84 80 71 63 64 66 63 58 56 63
6 6 7 7 9 11 13 15 15 12 9 8 6 7 8 7 7 6 5 5 8 34 74 87 81 83 89 93 92 91 97 97 90 91 91 86 84 86 91 94 92 91 92 91 86 79 70 58 60 73 77 81 89 88 87 91 89 85 86 89 93 95 91 86 84 84 89 94 93 91 86 77 74 74 73 70 67 68 74 78 73 65 63 61 58 59 60 66
7 7 8 8 9 10 12 16 16 12 10 10 9 8 7 7 7 5 7 6 2 30 83 97 77 71 83 93 90 88 97 99 94 91 85 84 90 90 91 94 91 89 92 96 95 88 78 66 60 66 74 84 92 88 81 83 80 80 86 86 86 92 91 89 90 91 91 94 95 88 81 81 72 56 60 72 69 65 68 68 62 57 56 56 60 66 67 70
8 9 9 8 8 8 14 20 19 15 16 16 12 13 16 18 19 14 8 4 6 38 86 105 92 77 81 95 97 92 96 99 100 96 84 83 90 91 92 90 87 90 92 92 90 82 77 74 68 66 66 76 92 92 83 80 80 82 87 83 80 86 85 81 81 86 89 90 93 90 81 78 68 48 48 65 73 72 69 64 61 61 61 61 64 66 66 66
10 8 8 9 8 9 13 18 20 21 26 28 23 21 26 32 40 41 27 11 17 38 55 71 85 86 86 95 99 97 96 97 101 99 91 90 90 89 89 84 82 89 88 87 90 85 80 77 69 65 64 68 85 97 94 89 88 91 91 80 72 74 75 70 67 72 83 87 87 85 78 71 67 60 53 57 67 71 70 75 79 75 67 64 60 59 64 67
10 7 9 12 12 13 15 19 25 29 30 31 32 30 31 37 47 55 51 31 17 14 16 28 46 60 75 90 94 96 99 101 101 95 90 94 95 94 91 83 83 91 88 86 91 91 92 89 75 68 69 70 75 83 90 94 92 87 84 75 65 69 79 79 71 70 78 82 74 70 73 71 70 68 57 50 57 63 66 78 85 77 67 64 56 50 62 79
9 8 11 16 19 21 26 36 45 51 47 38 38 36 30 41 58 64 67 66 46 20 9 11 14 23 49 79 92 91 93 100 102 94 91 94 95 97 97 88 84 86 86 87 87 85 93 98 91 84 81 76 73 75 83 93 93 85 85 79 63 70 89 91 83 81 83 84 77 65 63 65 67 66 62 59 63 63 58 62 70 69 64 62 59 57 64 76
8 8 13 22 27 30 41 52 54 60 61 48 48 47 30 36 63 69 65 71 74 63 46 30 21 24 44 71 87 89 90 98 102 98 94 89 86 91 98 96 90 83 81 85 86 85 92 98 96 96 95 85 78 80 85 90 88 86 94 91 69 70 89 92 88 87 82 86 86 67 51 55 62 64 64 65 68 67 63 63 68 71 68 66 71 79 80 74
8 8 12 20 31 39 46 49 45 55 63 53 55 63 45 31 42 56 65 73 80 87 79 53 33 39 57 67 68 71 81 91 97 95 88 81 80 90 98 100 98 92 88 91 92 87 89 94 95 97 101 96 86 85 89 92 93 92 96 96 81 77 88 92 90 85 76 80 86 72 59 59 61 60 62 64 64 69 76 76 74 73 74 76 80 85 89 84
9 8 8 13 28 37 37 39 43 58 68 56 50 62 63 47 36 47 75 93 92 92 90 68 44 45 59 60 54 57 65 73 81 83 79 77 80 90 96 95 97 97 94 96 95 87 85 90 94 95 98 98 93 89 86 87 94 95 94 94 90 87 92 96 95 90 81 79 77 69 67 69 67 68 76 80 77 78 83 82 77 73 74 78 78 79 88 94
12 10 7 9 18 23 31 44 54 65 66 42 27 45 62 55 45 55 83 100 100 96 94 83 67 58 52 46 51 65 66 64 70 71 69 69 72 84 92 88 88 90 85 85 85 82 83 86 86 88 93 94 94 89 78 74 81 87 88 90 89 91 97 100 97 92 87 82 73 66 67 71 72 75 86 95 97 93 91 86 82 79 78 79 79 80 90 97
15 12 8 8 11 22 43 56 56 64 67 38 16 37 61 57 47 56 78 91 92 92 94 91 83 72 55 40 50 72 77 73 74 73 70 65 65 78 87 84 84 81 76 83 92 90 91 90 84 84 87 88 89 87 78 72 74 78 82 82 78 81 90 96 93 88 88 85 78 75 77 77 75 77 84 94 99 99 98 92 88 87 85 86 88 88 91 93
17 15 11 8 10 26 50 56 48 58 72 55 29 33 55 65 63 65 74 80 75 72 83 96 96 83 63 45 48 67 76 73 77 85 85 73 65 70 71 69 78 80 75 84 97 98 98 97 93 93 91 87 85 84 81 78 77 77 78 76 73 71 77 87 90 91 92 88 80 81 86 87 85 86 91 95 96 96 95 91 89 91 90 89 90 88 87 90
Wind_Speed
30 30 30 30 31 30 30 31 31 31 31 31 31 31 31 31 31 31 30 30 30 30 30 31 31 31 32 32 32 32 33 32 32 31 30 28 28 27 26 25 22 20 20 20 19 20 22 24 25 27 28 27 27 27 27 27 28 29 29 27 24 22 16 16 19 17 14 6 16 23 26 30 34 36 38 36 29 25 26 29 30 26 18 16 17 17 19 23
30 30 30 30 30 30 30 30 30 31 31 31 31 31 31 30 30 30 29 29 29 29 29 30 30 30 30 31 31 31 31 31 30 28 27 26 26 25 23 22 21 19 19 19 19 20 22 24 26 27 27 27 27 27 27 27 28 28 28 26 22 19 14 20 25 18 13 11 19 26 29 29 32 36 38 35 27 24 26 27 28 24 15 15 20 20 21 24
30 30 30 30 30 30 30 30 30 30 30 30 30 30 30 29 29 29 29 28 28 28 28 29 29 29 29 30 30 30 30 30 28 23 24 26 24 23 21 20 19 18 18 18 19 20 22 24 25 26 27 27 27 27 28 27 28 28 27 25 19 16 20 27 26 18 12 13 20 29 33 33 34 35 36 35 27 22 22 24 26 24 18 16 20 23 24 25
30 30 30 30 30 30 30 30 30 30 30 30 30 29 29 29 29 28 28 27 28 28 28 28 28 28 28 28 29 29 29 28 24 20 23 25 22 20 19 18 17 17 17 17 18 20 22 24 25 26 27 27 27 27 28 28 28 27 26 23 17 18 27 29 22 18 11 15 23 30 36 39 38 34 32 30 26 22 21 21 23 24 22 20 22 25 25 24
31 31 31 31 30 30 30 30 30 30 30 30 29 29 29 28 28 28 27 27 27 27 27 27 27 27 27 27 27 28 28 26 22 19 21 22 20 18 17 17 16 16 17 17 18 20 22 23 24 26 26 26 27 27 27 27 27 27 26 22 18 21 32 30 23 23 20 20 28 33 37 41 42 38 30 21 22 25 23 21 20 23 22 21 24 27 27 26
31 31 31 31 30 30 30 30 30 30 29 29 29 29 28 28 27 27 27 27 26 26 26 27 26 27 26 26 26 27 27 25 21 17 18 20 18 15 15 16 16 16 16 17 19 20 22 23 24 25 25 26 27 27 26 26 27 27 26 23 20 24 34 34 27 27 27 26 32 36 40 42 42 40 32 21 20 24 24 22 19 20 21 22 24 26 28 28
31 31 31 31 31 31 30 30 30 29 29 29 28 28 28 27 27 27 26 26 26 26 26 26 26 26 26 25 25 26 26 26 21 16 17 19 17 15 14 14 15 16 17 18 19 20 22 23 24 24 25 26 26 26 26 26 28 28 26 24 22 26 35 36 31 28 30 34 37 40 41 41 39 37 31 25 25 23 24 25 20 18 20 22 24 25 27 27
31 31 31 31 31 31 31 30 30 29 29 28 28 28 27 27 26 26 26 26 26 25 25 25 25 25 25 25 24 25 25 25 21 18 18 18 17 15 14 14 15 16 17 18 19 20 22 22 23 24 25 25 26 26 27 27 29 29 27 23 23 28 35 37 35 32 32 35 38 38 34 36 39 34 27 28 30 24 23 26 21 18 20 20 22 25 26 24
31 31 31 31 31 31 31 31 30 29 29 28 28 27 27 26 26 26 26 26 25 25 25 24 24 24 24 24 24 25 24 23 22 20 19 18 18 17 16 15 15 16 17 18 19 20 21 22 23 24 24 25 26 27 28 28 28 28 25 23 24 28 35 39 37 32 29 33 36 33 25 28 33 26 22 32 33 23 22 26 23 20 19 19 21 23 22 20
31 31 31 31 31 31 31 30 30 30 29 28 28 27 27 26 26 26 25 25 25 24 24 23 24 24 24 24 23 24 24 24 23 21 20 20 20 20 19 17 17 17 17 18 20 20 21 22 23 24 25 26 27 28 28 29 28 27 27 26 25 28 33 37 38 34 29 32 36 29 20 20 24 21 22 31 30 22 22 25 25 24 21 21 22 21 19 18
31 31 31 31 31 31 31 30 30 30 29 29 28 27 27 26 26 25 25 25 24 24 23 23 23 23 23 23 22 24 25 25 23 20 21 22 21 21 22 20 20 19 18 18 19 20 21 22 23 24 25 26 26 27 27 28 27 28 30 28 28 29 32 36 40 39 36 37 36 26 18 19 22 22 24 29 27 23 24 27 26 23 22 23 23 22 21 20
31 31 31 32 32 32 31 31 30 30 29 29 28 28 27 26 26 25 25 24 24 23 22 22 22 22 22 22 22 24 24 23 22 21 21 22 23 23 23 22 22 21 21 20 19 20 22 23 24 25 25 25 26 27 27 27 27 29 30 28 28 32 34 37 40 40 40 41 35 26 22 22 23 23 25 26 23 22 26 28 25 24 25 25 23 22 21 19
31 31 32 32 32 32 31 31 31 30 30 29 29 28 27 27 26 26 25 24 23 23 22 22 22 22 21 21 23 24 22 22 23 23 21 22 24 24 23 23 24 23 22 22 21 20 21 23 24 24 24 25 26 27 27 28 29 29 29 27 28 32 34 35 37 37 40 39 31 27 26 23 21 21 21 22 21 23 28 28 24 25 28 28 26 23 21 20
32 32 32 32 32 32 32 31 31 30 30 29 29 29 28 27 26 26 25 24 23 22 22 21 21 22 20 20 23 22 21 22 23 23 21 22 24 24 23 23 24 24 23 24 24 22 21 22 24 24 24 26 26 25 27 29 29 28 28 28 29 32 31 31 32 33 36 35 27 26 27 23 19 18 18 19 20 22 26 28 25 25 28 29 28 25 23 22
32 33 33 33 33 33 32 32 31 31 30 30 29 29 29 28 27 26 25 24 23 22 22 21 21 21 19 20 21 21 22 23 22 22 22 22 22 22 22 22 23 25 24 24 25 25 23 22 23 24 24 26 25 26 27 28 28 28 28 28 28 30 28 27 28 28 32 33 26 25 28 23 18 17 17 17 19 21 23 24 22 23 28 28 27 25 23 23
33 33 33 33 33 33 33 32 32 31 31 30 30 29 29 28 28 27 26 25 23 22 21 21 20 20 19 18 20 21 21 22 21 21 21 21 20 20 20 21 22 24 25 25 25 26 25 24 24 24 25 26 26 26 27 28 27 27 27 27 27 28 27 26 25 25 29 30 26 25 28 25 18 15 16 17 20 24 24 21 20 23 26 26 25 24 22 21
32 33 33 33 33 33 33 33 32 32 31 31 30 30 29 29 29 27 26 25 23 22 22 21 19 19 19 17 18 20 20 20 20 20 21 21 20 20 20 20 22 23 24 25 25 25 26 26 25 24 25 26 25 26 28 27 26 25 26 25 25 26 27 26 24 24 27 28 26 26 28 27 18 13 16 18 17 21 22 21 24 26 27 27 26 25 22 20
32 32 32 33 33 33 33 33 33 32 32 31 30 30 30 30 29 28 27 25 22 22 22 20 18 18 18 16 17 18 19 20 19 20 21 21 21 21 21 20 21 22 24 25 24 25 27 27 27 26 25 25 25 26 27 25 23 23 22 21 22 23 24 24 23 22 23 24 23 23 27 26 18 15 19 19 15 20 25 24 26 28 29 30 28 27 25 22
31 31 32 32 32 33 33 33 33 33 32 31 30 30 30 30 29 29 27 24 22 22 22 20 17 18 18 16 17 17 19 18 18 20 21 21 21 21 21 20 21 22 23 23 24 25 26 27 28 27 25 24 24 25 25 23 22 20 19 20 19 18 18 19 18 18 19 20 17 15 21 18 12 17 21 20 20 23 28 29 27 27 30 31 30 28 25 22
30 30 31 31 31 32 32 33 33 33 33 32 31 30 30 31 30 29 27 23 22 23 22 20 17 17 17 16 16 17 18 18 18 21 21 20 21 20 20 20 20 21 22 22 23 25 26 26 27 26 24 24 24 24 24 22 21 20 21 22 19 16 16 12 11 15 16 15 13 11 18 14 8 14 21 23 21 21 27 30 26 26 32 32 30 27 22 21
30 30 30 30 30 31 31 31 32 33 33 33 32 31 31 31 31 30 27 24 23 23 21 19 17 16 17 16 15 16 18 17 18 20 21 20 20 20 20 20 20 19 20 22 24 25 25 24 23 23 24 24 23 23 23 22 21 22 24 25 22 20 16 9 13 17 12 14 16 16 21 20 16 15 21 26 21 16 21 26 23 23 28 28 26 24 21 21
29 30 30 30 30 30 29 30 31 32 32 33 32 32 32 32 31 30 28 24 22 24 21 19 18 16 17 17 15 16 17 16 16 19 21 21 19 20 19 19 19 19 20 22 23 23 23 21 20 21 22 23 23 23 22 21 21 23 26 27 24 18 12 10 20 18 9 16 20 21 23 24 23 18 23 28 24 20 20 24 24 23 23 23 26 24 20 20
28 29 29 29 29 28 28 28 28 29 31 32 32 32 32 32 32 31 30 25 21 23 23 20 20 18 16 16 16 17 16 15 16 19 21 20 19 21 20 18 18 19 20 21 21 21 20 19 20 20 21 21 22 21 21 21 23 25 26 25 20 16 13 10 17 13 13 19 22 23 23 21 21 20 28 30 27 27 26 25 27 29 27 28 32 29 21 20
27 28 27 27 28 27 26 26 26 27 28 30 31 31 31 31 32 30 30 26 20 21 23 20 19 18 16 17 18 16 15 15 17 20 21 19 20 22 19 17 18 19 20 19 20 19 18 19 20 20 20 20 21 21 21 21 23 24 22 21 19 20 19 14 13 9 12 19 25 26 24 21 19 21 29 32 29 29 30 30 31 33 33 34 37 34 27 24
27 27 27 26 27 26 25 24 25 26 27 28 28 28 28 28 29 29 29 28 20 19 23 21 17 17 18 19 18 15 15 16 16 20 21 19 21 21 18 17 19 19 19 19 19 18 18 19 19 19 19 19 20 20 20 19 20 20 17 18 21 24 23 18 19 15 9 17 24 25 27 26 24 23 24 27 27 27 29 30 30 31 32 34 35 33 30 29
27 27 27 27 26 26 24 23 24 25 25 25 24 24 25 25 27 29 28 27 21 18 23 22 16 16 19 19 17 15 16 16 17 20 19 18 20 20 18 18 18 19 19 18 19 18 18 19 19 18 17 19 21 20 20 17 18 18 15 19 23 26 25 19 23 24 15 17 25 26 29 27 27 28 23 20 23 25 26 28 31 30 27 28 30 28 29 30
27 27 28 27 26 26 26 24 24 25 25 23 21 22 23 23 25 27 26 26 22 19 21 19 15 16 19 17 14 14 16 16 18 19 17 17 19 19 18 18 17 18 19 19 20 19 17 17 18 17 17 19 18 14 14 16 18 18 16 22 27 26 25 20 23 27 17 16 27 30 33 32 33 35 31 27 26 24 25 27 33 33 26 28 32 32 33 32
27 28 28 28 27 27 27 26 25 26 25 22 21 23 23 22 22 24 24 24 22 19 18 16 15 17 20 17 12 13 16 16 17 17 16 16 18 19 18 17 17 17 18 19 20 17 15 16 17 18 18 18 14 9 10 15 16 15 16 23 31 29 27 23 21 24 18 17 25 29 33 33 32 30 27 30 32 27 25 30 34 34 30 33 38 39 36 32
27 28 28 28 27 27 28 27 26 27 26 24 23 24 23 22 22 23 24 22 18 16 16 16 16 18 21 19 13 13 15 14 14 17 18 17 17 19 17 16 17 17 19 20 19 17 16 16 17 18 19 17 13 10 13 15 13 14 17 21 29 32 30 27 23 21 19 21 24 26 30 29 26 21 17 22 28 25 25 31 35 36 36 37 39 39 35 30
27 27 27 28 27 27 27 27 27 27 27 27 26 26 25 24 23 24 25 20 15 15 17 18 16 16 19 18 14 14 15 14 15 18 18 16 18 19 17 18 18 18 20 21 20 19 16 16 18 20 20 17 15 13 13 14 12 14 17 19 24 27 25 28 28 23 23 24 21 20 22 24 23 17 16 20 21 20 22 29 33 33 33 32 33 34 31 30
24 25 25 25 25 25 25 24 25 26 26 27 27 27 27 26 27 28 24 18 14 15 18 18 16 18 19 17 14 14 15 15 17 20 18 15 17 18 17 18 19 20 21 21 22 20 18 19 20 20 18 14 16 16 14 14 14 14 17 19 21 21 20 25 29 31 32 27 22 19 17 18 17 12 18 23 21 21 25 30 34 33 29 28 29 28 26 26
22 22 22 23 23 23 22 21 23 24 24 25 26 27 28 28 30 29 23 18 14 13 14 14 15 19 19 18 17 15 15 16 18 21 19 16 15 16 15 16 17 19 20 20 20 18 19 22 20 17 14 11 14 18 16 15 15 15 18 22 24 23 21 22 26 34 37 32 26 21 17 18 17 13 19 25 23 23 28 31 33 32 29 28 26 22 20 22
20 21 20 21 22 21 21 20 21 22 22 24 25 25 27 29 29 26 22 20 16 15 15 10 10 15 16 17 17 16 17 17 18 21 21 18 17 16 15 15 16 18 18 18 17 16 18 21 21 17 14 13 14 17 16 16 16 17 21 25 24 24 23 20 21 27 32 32 28 21 18 19 19 18 22 26 26 25 27 28 27 27 26 26 24 20 19 20
18 18 19 19 20 19 19 18 19 21 21 22 23 24 27 27 24 21 20 17 16 19 18 12 11 13 14 15 14 15 17 17 19 22 21 18 17 17 17 16 17 17 17 18 19 19 20 21 20 18 15 14 14 14 14 15 15 16 21 24 23 22 21 20 20 21 22 24 22 17 18 21 21 23 25 26 26 26 26 27 25 24 23 23 22 21 21 20
16 17 17 18 18 18 18 18 18 20 21 21 22 24 25 22 19 17 17 15 17 20 20 18 16 14 15 15 14 14 16 16 18 21 21 20 18 17 17 17 17 17 18 20 21 21 21 20 18 16 15 15 13 11 12 15 15 13 16 20 22 21 19 19 20 20 19 20 18 17 21 23 23 25 25 23 25 26 26 27 27 26 24 21 20 21 21 20
15 16 17 17 17 17 17 17 18 19 20 21 23 23 21 19 17 16 16 16 19 21 21 21 20 17 16 16 15 15 16 18 20 21 21 21 19 18 17 17 18 18 18 21 21 20 21 19 16 15 15 15 15 14 15 17 17 15 15 16 17 18 18 17 18 21 21 20 21 22 24 24 23 24 24 23 24 28 29 30 29 28 26 23 20 19 19 20
15 16 17 16 17 18 18 18 19 20 20 22 22 20 19 18 17 16 16 17 21 24 25 24 20 16 16 17 17 16 16 20 22 22 22 21 20 20 19 18 19 18 18 20 21 21 21 19 16 16 15 14 15 16 18 20 17 16 16 13 12 15 17 18 18 20 23 22 21 22 22 22 21 22 23 22 24 28 30 29 29 28 27 26 24 20 19 20
15 16 17 17 18 19 19 20 20 21 22 22 21 20 19 18 17 17 18 18 22 27 29 26 20 17 18 20 19 17 16 19 22 23 23 24 24 23 22 21 21 21 20 20 21 23 24 22 20 20 19 17 16 17 19 22 21 19 18 16 15 16 19 21 20 21 23 22 20 21 22 22 22 24 24 22 25 28 29 27 26 26 26 25 24 22 21 21
15 16 17 18 18 18 19 20 21 21 22 22 22 22 21 20 19 19 19 20 22 26 28 26 22 20 23 23 18 15 15 19 23 24 24 26 27 26 26 25 24 24 24 24 25 26 27 27 23 23 23 20 19 20 19 19 21 20 19 18 18 21 23 24 23 22 22 20 20 21 22 23 24 25 24 21 21 23 24 24 24 25 25 23 23 24 23 22
14 15 17 18 18 18 18 18 19 20 21 21 22 22 22 22 21 20 21 22 23 26 28 28 24 21 24 26 21 16 15 18 23 25 25 26 27 28 28 27 26 26 26 26 26 27 30 30 26 24 26 25 22 21 19 18 19 19 20 19 19 22 25 27 26 23 21 21 21 21 22 25 25 23 23 22 20 19 19 19 20 22 22 22 23 25 25 24
14 15 16 18 18 18 18 19 19 20 20 21 22 22 23 23 23 22 23 25 26 28 30 30 29 27 28 30 27 22 19 19 20 24 28 28 27 29 30 29 29 29 29 28 27 27 30 31 29 27 27 27 27 24 22 23 24 22 22 22 21 21 23 26 27 26 25 23 21 19 21 24 25 23 23 23 22 22 20 19 20 20 22 22 22 22 23 22
14 15 17 18 19 20 20 21 21 21 21 22 22 23 24 24 25 24 24 26 27 28 30 32 34 32 32 33 28 24 24 20 17 23 30 30 29 29 30 30 30 31 31 31 30 30 31 30 30 30 29 28 31 30 28 29 29 29 28 26 23 22 22 24 26 28 30 27 24 23 22 24 26 25 25 23 22 23 23 23 23 22 22 22 21 21 21 20
14 16 18 19 21 21 21 22 22 23 23 23 23 23 23 23 24 24 25 27 27 30 34 35 35 34 33 34 29 25 27 24 20 23 26 28 29 28 27 29 30 30 33 35 34 34 34 31 30 32 33 32 31 32 31 29 29 30 31 29 25 24 25 25 24 25 27 27 26 26 25 25 26 26 26 26 24 24 24 25 25 23 22 21 22 23 23 21
15 17 19 20 21 22 23 22 23 24 25 26 25 24 23 23 23 22 25 29 32 35 39 40 38 36 35 34 31 28 28 24 21 23 23 23 25 26 27 30 30 30 34 37 37 37 37 35 31 30 34 35 33 33 31 28 27 29 31 31 30 27 25 25 26 26 25 25 25 26 27 29 30 29 29 28 26 25 24 24 23 22 22 22 24 26 25 23
17 19 18 17 17 17 17 17 17 19 21 24 25 25 26 26 25 24 25 30 35 39 42 42 41 38 35 36 36 32 30 26 20 21 23 21 20 21 23 27 28 28 31 35 36 37 37 36 32 30 30 33 35 37 34 30 29 30 31 34 34 31 27 26 27 29 28 28 28 27 27 29 30 30 30 30 28 28 28 27 24 23 23 24 26 27 25 21
17 18 15 12 12 12 12 12 13 15 17 18 20 23 27 27 26 25 24 25 30 34 37 39 40 38 35 36 38 37 35 30 22 21 22 20 18 18 18 22 26 27 27 29 31 33 35 36 34 31 29 29 32 35 36 35 33 32 34 36 36 34 31 28 26 26 27 28 30 29 27 26 26 27 27 28 29 30 30 30 28 26 26 25 25 25 23 22
17 17 12 10 11 12 13 14 16 18 18 16 16 18 23 26 26 24 24 24 25 27 30 33 36 36 35 35 37 38 37 32 26 23 23 21 18 19 17 17 22 26 27 27 28 30 32 34 34 31 28 28 29 31 34 36 37 36 35 35 35 35 34 31 28 27 27 28 30 31 31 31 31 30 30 29 30 30 29 30 28 26 25 23 21 20 21 22
17 17 12 10 11 12 14 17 20 21 19 14 12 13 15 21 24 23 22 23 25 25 26 30 32 34 35 36 37 37 36 34 31 29 28 25 21 19 18 17 18 22 24 26 28 30 31 31 31 28 26 27 29 30 31 33 35 36 37 36 35 35 35 34 32 31 30 29 29 31 32 35 35 35 34 33 32 31 29 28 27 25 22 19 17 17 17 15
17 19 14 10 11 12 14 18 21 20 17 13 12 11 10 14 20 23 20 19 21 23 23 26 29 31 33 35 34 33 33 35 36 34 32 31 25 19 18 19 18 18 20 23 26 27 26 26 29 29 28 28 28 29 31 31 31 32 34 35 35 35 37 36 34 33 33 32 31 31 32 33 33 33 33 32 32 33 31 29 28 25 22 20 17 17 17 16
16 19 18 12 10 10 12 15 18 17 14 11 9 8 8 11 18 21 18 15 16 21 22 23 26 28 30 31 30 29 30 32 35 36 35 34 29 23 20 21 21 20 19 20 23 24 23 22 24 26 28 28 28 29 30 30 29 30 32 33 33 33 36 38 37 37 38 37 36 36 35 33 32 31 31 29 28 29 29 29 28 25 23 22 19 17 18 19
15 17 18 15 10 8 8 10 14 14 10 8 5 4 6 9 16 21 19 14 14 17 20 21 23 26 28 29 28 28 28 28 29 31 33 35 33 29 25 23 23 21 20 20 21 22 22 22 22 22 23 25 26 28 29 29 28 29 31 32 32 32 33 35 36 38 40 40 40 40 37 35 35 34 34 32 29 28 27 27 26 24 22 21 19 20 22 24
15 16 17 16 13 9 7 8 13 14 10 6 3 2 6 8 12 17 18 17 15 16 18 18 20 23 25 27 28 28 27 26 25 25 28 31 33 31 31 30 26 23 22 22 22 19 17 18 20 21 21 21 22 24 26 27 26 26 27 28 29 31 32 33 34 35 36 37 39 40 37 33 32 33 35 37 35 32 30 29 28 26 24 23 21 21 23 24
Wind_Direction
268 268 268 268 268 268 269 270 271 272 272 274 275 275 276 277 277 277 277 277 277 278 278 278 279 279 279 279 279 279 279 280 280 279 279 279 278 277 276 276 273 269 263 257 248 240 237 233 232 232 233 232 231 231 230 231 231 234 235 233 234 227 226 205 177 151 146 232 257 233 237 246 253 255 256 261 264 261 255 251 247 245 248 241 236 239 239 239
269 269 268 268 269 269 269 270 270 271 272 273 274 275 276 276 277 277 277 277 278 278 278 278 278 279 279 279 279 278 279 278 278 278 278 278 277 277 275 274 272 267 260 253 246 239 235 232 232 231 231 229 227 227 227 228 229 232 233 231 231 219 196 177 173 154 151 218 248 241 244 244 247 253 256 262 266 261 253 248 246 244 242 237 234 235 237 238
270 269 269 269 269 269 269 269 269 270 271 272 273 275 276 276 277 277 277 277 278 278 278 278 278 279 279 278 278 278 278 278 277 276 278 278 277 277 275 272 268 263 257 249 242 237 234 232 232 231 229 229 226 225 225 225 228 229 232 228 223 207 174 169 178 167 164 224 240 241 249 249 247 247 249 256 258 256 253 244 239 240 236 231 232 233 235 238
270 269 269 268 268 268 268 268 268 269 270 271 273 274 275 276 276 276 277 277 277 278 278 278 278 278 278 278 278 277 278 277 275 275 277 277 275 275 272 268 263 257 251 245 241 236 233 232 230 230 228 227 225 225 225 224 227 227 231 226 211 193 173 167 171 162 175 242 242 236 245 250 250 247 246 251 250 247 249 243 237 239 236 233 234 235 237 240
269 269 268 268 268 267 267 267 268 268 269 271 272 273 274 275 275 276 276 276 277 277 278 278 278 278 278 278 277 276 277 275 273 272 274 274 272 270 266 262 258 253 248 242 239 236 233 231 229 229 227 226 224 225 225 225 227 227 229 222 203 187 177 173 173 173 187 231 238 232 235 242 245 245 248 252 244 238 243 244 239 241 241 236 235 237 239 238
270 269 269 268 268 267 267 267 267 267 268 269 270 272 273 274 275 275 276 276 277 277 277 278 278 278 278 278 277 276 276 271 267 265 266 269 267 265 261 256 253 249 247 241 238 235 234 231 228 228 226 225 225 224 223 224 226 225 225 220 203 187 182 184 188 190 200 222 233 231 228 234 242 243 246 253 246 238 241 240 234 238 242 239 236 237 238 235
270 270 269 269 268 267 267 266 266 266 267 268 269 270 272 273 274 274 275 276 276 277 277 278 278 278 278 279 277 275 274 269 264 257 256 261 263 262 256 251 248 246 245 242 239 236 234 231 228 227 225 225 225 225 222 223 225 224 221 216 204 190 187 192 197 202 213 221 226 230 228 231 241 242 242 255 255 243 240 239 234 234 239 241 238 236 237 238
270 269 269 268 268 267 266 265 265 265 265 266 267 269 270 271 273 274 275 276 276 277 277 278 278 278 279 279 277 275 271 266 264 258 250 252 257 259 253 249 247 244 244 242 240 237 234 232 229 227 225 225 225 225 224 223 225 225 220 213 204 195 192 196 201 208 222 229 229 233 233 232 241 243 242 254 252 240 235 237 234 234 238 237 234 234 236 239
270 268 267 266 266 266 265 265 265 265 265 265 266 267 268 269 271 272 273 274 275 276 277 278 278 279 279 278 276 274 269 263 259 255 249 245 247 249 250 248 246 244 244 242 240 238 236 233 231 229 226 225 225 225 225 224 225 226 223 213 207 202 199 202 206 209 227 243 243 241 237 233 240 245 245 247 246 240 233 232 228 225 230 230 228 232 234 237
269 267 266 265 265 264 264 264 264 264 264 264 265 265 266 267 269 270 271 273 274 275 276 277 278 279 278 277 276 273 267 260 254 249 247 244 242 244 246 245 243 245 244 243 241 238 237 235 233 230 228 227 226 227 227 226 225 226 224 214 207 206 206 209 213 213 223 241 246 240 229 230 239 238 235 239 244 245 235 231 228 222 223 228 227 227 226 227
267 267 266 265 264 264 263 262 262 263 263 262 263 263 264 265 266 268 269 271 272 274 276 276 278 279 278 277 274 271 267 262 255 246 244 244 244 245 246 243 242 244 244 245 243 239 237 236 235 233 230 229 229 230 231 231 229 228 226 216 208 208 208 211 217 219 223 234 242 244 235 230 230 225 226 234 242 246 237 227 225 225 224 228 230 226 223 224
268 266 266 265 264 263 262 262 261 261 261 261 261 261 261 262 264 266 267 270 272 274 275 276 278 278 279 277 271 270 269 266 258 244 239 243 246 245 244 242 241 244 244 245 245 242 238 237 236 235 233 232 231 230 230 232 234 234 233 226 215 213 211 211 217 222 229 236 242 249 246 234 227 223 226 235 243 249 245 232 221 222 226 228 230 228 228 231
268 267 266 265 263 262 261 261 260 259 259 259 259 259 259 260 261 263 266 268 270 272 274 277 278 278 279 275 271 270 267 264 257 246 238 239 245 248 247 241 240 244 244 243 244 243 240 239 237 237 237 235 234 234 232 231 232 234 237 235 229 225 220 218 221 224 233 241 244 250 249 238 231 227 227 232 236 242 249 247 232 224 227 227 226 229 234 235
269 267 266 264 263 262 261 260 259 259 258 258 258 258 258 258 259 261 263 265 268 271 273 276 277 279 280 275 273 271 263 258 253 247 241 238 242 247 250 246 241 243 245 243 242 242 242 241 238 237 238 238 237 237 238 237 236 235 235 235 235 234 231 229 229 229 237 245 249 253 253 242 232 232 230 229 230 233 245 253 244 233 236 233 228 231 234 232
270 268 266 265 263 262 260 259 258 258 257 257 256 256 256 256 257 258 261 263 265 268 272 275 277 279 280 277 273 267 259 255 250 244 240 240 243 245 248 248 243 241 244 245 243 241 241 242 239 237 238 239 238 237 239 241 239 238 238 238 238 239 239 237 235 234 240 248 249 251 254 246 231 232 231 226 225 224 232 247 246 241 246 245 239 237 234 233
271 269 268 266 264 262 260 259 257 257 256 256 255 255 255 255 255 256 258 261 263 266 270 273 276 280 281 279 274 267 259 255 251 244 240 243 246 245 245 247 245 240 241 245 245 242 240 241 241 237 239 240 238 239 240 241 240 239 240 240 241 243 243 240 237 236 241 247 247 246 251 249 236 228 229 224 223 224 228 241 245 241 248 252 250 245 239 236
271 270 269 268 266 264 262 260 258 257 255 255 255 254 254 253 254 254 255 258 260 264 267 270 276 280 282 281 274 267 258 252 249 243 238 242 245 245 245 245 246 242 240 244 245 243 241 240 241 239 239 240 240 241 241 241 241 242 242 242 244 246 247 245 237 236 241 243 244 244 245 246 238 222 219 212 219 240 247 246 244 241 246 252 254 251 246 241
271 270 270 268 267 266 264 262 260 258 256 255 254 254 253 252 252 252 253 255 258 262 264 268 274 278 281 280 271 262 253 248 245 241 237 238 242 244 246 245 246 245 242 243 245 245 242 240 241 240 240 241 241 243 244 243 245 248 249 246 242 242 246 247 241 236 237 242 245 246 248 246 233 218 212 199 205 247 260 254 244 242 247 249 250 251 250 250
271 271 270 269 268 267 266 265 262 261 258 256 254 253 252 251 250 251 252 254 256 258 262 265 269 273 277 276 269 259 253 248 239 237 235 236 242 244 247 247 246 246 243 243 245 245 243 241 242 241 243 245 246 248 248 248 248 245 242 237 232 234 238 240 241 229 224 240 241 243 259 255 224 220 217 200 198 221 242 252 247 241 248 249 246 248 251 253
272 271 271 270 269 268 267 266 264 262 261 259 256 254 253 251 250 250 250 252 253 255 258 262 263 268 274 275 272 261 252 246 236 233 232 235 242 243 246 248 247 247 245 243 245 246 244 243 243 244 247 249 249 249 247 246 243 235 232 231 225 227 234 231 220 206 207 237 235 236 269 273 245 232 214 201 205 215 228 242 247 244 250 252 247 248 247 248
273 273 272 271 270 269 268 266 265 263 262 260 258 256 254 252 251 250 248 248 251 254 255 259 259 261 268 271 270 263 254 246 239 234 230 232 240 243 244 246 247 246 245 242 243 246 245 244 245 245 248 248 247 246 243 241 236 232 230 229 221 216 226 210 174 176 197 236 240 248 264 267 272 253 210 205 210 216 228 235 243 247 248 252 251 249 242 241
274 274 273 273 272 271 270 268 265 264 262 261 259 258 255 253 252 251 249 245 247 254 254 256 258 254 259 267 268 265 258 245 236 236 233 229 235 243 243 243 245 243 242 242 242 246 246 246 246 245 245 245 244 242 240 236 230 228 230 232 226 207 200 181 162 163 210 243 243 249 251 257 270 253 210 212 210 203 223 238 248 252 248 254 260 256 245 242
273 274 273 274 273 272 272 269 267 265 263 262 260 258 257 255 253 251 250 246 242 251 254 253 256 254 253 261 264 263 261 246 232 233 235 231 234 240 241 242 243 241 241 243 243 245 246 244 242 240 240 239 241 240 236 233 226 224 230 233 223 181 153 155 164 184 243 240 232 234 238 248 260 238 207 212 216 207 212 227 242 253 254 259 262 257 248 246
273 273 273 273 273 272 272 270 269 265 263 263 261 260 258 256 255 253 252 249 239 245 254 250 251 258 256 255 258 261 263 251 237 234 233 234 239 240 241 242 243 242 241 242 243 242 242 241 237 234 236 235 238 238 235 234 230 229 231 227 209 170 152 158 174 211 251 232 224 226 232 239 242 230 208 209 220 219 218 222 231 246 254 257 259 257 257 260
274 273 273 272 272 272 272 271 269 266 264 264 263 263 261 258 257 254 252 250 239 238 252 254 252 258 257 256 259 257 255 250 245 241 232 232 241 242 242 241 242 243 240 241 242 239 237 237 235 232 233 234 236 239 238 234 232 233 229 216 198 170 163 174 180 186 207 217 219 221 227 236 240 236 216 210 224 231 233 236 239 245 249 251 255 258 263 268
274 273 273 272 272 272 272 271 270 267 265 264 265 266 262 258 255 252 251 250 244 238 248 255 256 258 257 256 257 251 248 246 244 244 235 232 240 242 243 241 240 242 240 239 238 236 234 234 233 229 230 235 235 239 239 232 227 223 212 202 189 171 173 185 191 190 193 219 225 224 225 230 237 240 234 222 228 237 241 247 251 250 242 243 253 260 266 269
274 273 272 271 272 272 271 270 269 267 265 264 266 264 259 256 253 251 251 251 248 242 245 251 250 254 257 253 249 249 248 243 242 246 241 237 242 242 243 242 239 239 238 239 236 232 229 230 232 226 229 235 236 242 235 223 222 213 201 195 185 177 181 189 202 200 195 226 234 235 233 230 233 240 246 240 232 234 238 241 249 251 246 248 258 265 268 268
274 273 272 271 270 271 270 268 268 266 264 263 261 259 257 255 252 251 251 251 252 249 249 253 246 246 255 256 252 251 250 245 246 249 242 237 241 241 241 243 241 237 234 237 238 232 223 226 232 229 233 239 239 250 233 220 220 207 202 198 189 191 192 189 203 202 197 222 232 235 237 233 232 236 243 238 229 228 230 233 241 250 255 256 259 264 266 266
274 273 272 271 270 269 268 267 267 264 263 262 258 257 256 253 252 250 249 249 254 255 252 253 247 243 251 256 256 254 254 252 249 247 241 235 238 239 239 239 238 236 233 234 233 230 223 223 233 236 238 240 239 244 230 221 215 200 202 202 197 200 197 193 201 200 203 220 225 232 238 237 235 233 224 219 222 226 228 231 239 249 256 256 258 261 262 262
274 273 272 271 270 269 268 267 267 263 261 261 258 256 254 252 252 250 250 250 254 255 251 252 253 250 252 254 253 253 256 256 250 248 242 236 237 238 236 234 232 231 232 231 227 226 226 223 230 238 238 233 228 230 224 216 209 202 204 202 199 197 192 196 205 207 214 221 220 225 233 236 238 232 207 204 217 225 227 235 244 251 253 253 257 259 257 258
274 273 272 272 270 269 268 267 266 264 261 259 258 256 254 252 251 249 249 251 254 256 255 256 256 253 254 254 249 245 249 251 251 253 248 237 237 239 237 236 234 232 230 230 227 222 223 224 226 235 241 233 223 225 224 211 200 196 197 196 193 188 189 201 209 214 220 222 221 221 224 235 241 222 202 207 217 221 224 236 247 252 252 251 256 258 256 257
274 273 272 271 270 268 267 266 265 263 261 259 257 255 254 251 249 249 249 249 247 249 254 258 259 256 252 251 248 243 242 243 247 255 254 243 237 238 239 239 238 237 235 235 235 227 225 230 233 238 246 244 230 227 224 211 201 194 193 196 192 186 194 207 212 217 221 224 229 233 235 243 245 224 208 211 217 223 228 234 243 249 250 253 258 261 260 258
273 273 272 270 270 268 267 265 264 263 261 259 257 255 253 251 250 251 251 247 235 234 240 238 248 254 249 247 246 241 240 239 240 250 254 247 236 232 232 233 232 235 236 236 241 238 231 234 239 238 237 240 237 232 227 213 206 210 210 206 199 195 200 207 211 219 222 225 233 239 244 243 238 228 220 216 218 225 233 237 243 248 252 257 259 259 257 253
273 273 272 270 269 269 268 265 263 262 260 259 257 255 253 252 253 252 250 241 224 229 236 218 207 231 243 246 246 240 236 236 237 244 249 244 234 229 227 228 228 227 226 227 231 234 232 230 234 238 236 237 237 237 234 214 201 217 225 216 206 206 210 205 205 218 228 230 231 230 233 233 232 230 227 225 227 230 235 239 243 249 257 261 258 253 253 252
274 272 270 271 271 270 269 266 263 262 260 259 257 255 255 257 258 252 246 232 215 219 229 225 218 222 231 236 239 240 236 233 235 239 243 243 237 231 226 225 228 225 219 221 225 230 235 233 232 238 240 238 232 228 231 220 204 208 221 220 212 210 215 212 206 212 223 228 225 220 223 225 229 233 232 230 232 237 241 242 245 250 256 262 261 259 261 261
274 272 269 270 272 271 269 267 265 262 261 260 258 258 259 259 255 248 238 223 210 207 212 220 224 226 233 237 233 233 236 235 233 233 238 243 241 235 228 223 227 227 221 222 222 227 237 238 234 234 237 238 229 216 219 224 221 214 212 220 222 213 215 220 217 214 217 222 221 220 225 229 233 240 242 238 236 239 243 244 247 249 252 259 265 266 266 266
276 276 274 274 274 273 271 269 267 265 263 262 261 262 261 256 251 245 236 224 213 208 207 208 210 219 239 248 237 227 233 238 236 232 231 233 232 229 228 224 224 225 224 224 224 225 232 235 232 228 227 231 227 214 211 215 221 224 220 218 218 217 221 224 220 219 220 221 221 222 230 235 236 241 243 241 238 239 241 244 248 252 253 257 261 263 266 269
280 280 280 278 277 275 274 272 269 266 264 263 263 262 258 252 246 238 231 225 218 215 211 204 198 204 221 235 234 224 228 239 241 237 232 231 230 226 222 218 217 218 217 220 224 226 229 229 225 224 224 223 220 212 208 209 211 213 216 215 208 209 224 230 223 222 224 223 222 227 233 235 235 236 239 239 237 238 242 247 252 256 256 258 261 265 268 270
288 288 286 284 282 279 276 273 271 268 266 264 262 259 254 250 243 235 227 222 222 221 212 199 196 203 209 215 220 219 227 238 241 240 236 234 235 231 224 216 214 216 215 214 217 222 228 229 223 223 226 225 218 209 204 208 212 212 212 215 212 207 217 230 229 225 227 225 223 226 230 233 233 235 240 244 243 244 250 253 254 257 261 262 265 266 265 264
297 296 295 293 291 287 282 278 274 270 267 264 261 257 253 248 241 234 226 218 216 218 209 197 195 203 205 205 203 205 222 237 241 243 242 239 238 236 229 219 214 215 216 215 214 218 226 229 225 221 224 228 223 208 198 202 209 215 218 218 219 215 216 225 231 230 228 226 224 223 226 231 235 235 236 239 240 245 253 256 254 257 264 267 267 266 264 260
304 303 301 300 298 294 288 282 276 272 269 265 262 256 251 246 238 230 226 220 214 212 210 207 207 207 204 203 199 193 205 228 244 248 245 241 239 238 233 226 220 216 216 215 212 214 223 227 225 221 220 228 228 212 197 199 200 204 214 220 225 226 221 222 227 231 232 228 226 225 225 229 234 234 235 235 234 239 246 250 250 253 259 264 266 266 265 263
311 310 309 308 304 298 291 284 278 275 271 266 262 257 252 248 241 231 223 221 216 209 209 214 217 214 206 204 203 195 197 212 235 247 245 241 240 241 236 231 226 220 218 216 211 212 220 223 223 221 218 224 229 218 203 201 200 200 208 217 221 226 229 227 225 229 232 231 228 228 229 232 235 237 240 243 242 244 248 251 252 254 255 257 260 261 264 265
319 319 315 311 306 298 290 283 279 276 271 265 261 257 253 250 246 238 226 219 211 204 207 213 217 217 210 204 202 199 199 205 218 232 239 241 241 243 239 234 230 226 223 220 215 214 216 218 220 220 218 219 224 221 212 205 200 200 207 213 213 216 223 228 230 232 235 235 231 229 229 233 238 240 242 246 249 250 253 257 260 259 257 258 260 262 263 263
327 325 320 314 308 299 290 284 278 273 267 263 258 254 250 245 241 237 228 218 209 206 210 213 214 215 212 206 202 199 200 205 215 226 233 238 241 242 241 237 234 233 228 222 219 217 215 215 217 217 217 218 218 220 219 211 202 201 207 211 212 213 217 224 231 234 236 238 236 233 236 237 237 239 240 242 246 251 255 259 261 260 262 264 265 268 269 263
332 330 327 323 317 310 304 298 290 283 273 266 261 252 246 242 237 231 226 222 219 218 218 218 218 216 213 211 209 204 202 201 205 218 227 235 238 239 240 237 233 233 229 222 221 220 216 215 218 217 217 218 218 221 224 222 215 209 209 214 216 215 215 219 225 229 233 238 238 235 238 241 238 239 243 244 247 251 252 253 255 257 261 262 263 268 272 263
339 336 332 333 330 327 329 325 317 311 297 281 272 259 245 238 234 231 229 228 230 231 229 227 226 222 216 216 217 213 207 203 204 214 223 230 237 238 239 239 235 234 231 224 224 226 222 218 218 218 218 218 219 223 227 231 231 221 212 214 217 216 216 218 222 226 228 233 236 233 232 238 241 243 246 248 250 251 251 253 257 258 260 261 260 259 260 259
349 343 331 328 330 329 331 329 323 321 311 292 281 268 248 234 230 229 230 230 231 235 234 232 231 227 220 218 221 218 211 206 207 213 217 223 232 233 229 231 233 234 233 230 229 233 232 225 218 216 220 223 224 225 226 230 235 231 221 218 218 217 218 221 223 227 228 228 232 233 233 239 244 247 248 249 251 252 254 257 260 260 260 261 261 258 256 256
356 353 334 313 317 323 324 323 320 320 316 300 283 275 254 235 227 225 227 231 231 232 233 229 226 224 220 218 221 222 217 212 211 211 212 216 221 223 221 222 224 227 232 234 233 234 238 235 226 221 223 228 230 229 228 228 231 233 230 230 228 223 222 223 224 228 233 232 234 237 239 241 245 248 250 251 252 254 255 258 259 261 262 260 261 266 261 241
360 1 350 316 301 313 318 319 320 320 317 305 286 275 257 232 220 216 219 228 229 229 232 229 223 220 219 219 221 223 222 220 219 217 215 216 220 224 226 226 225 223 228 234 234 233 237 237 234 229 226 228 231 232 232 231 233 236 237 238 236 228 224 225 227 230 236 240 242 243 243 244 246 248 250 252 251 251 251 254 257 260 263 261 266 270 257 238
2 5 2 338 307 306 314 323 331 329 321 313 295 269 245 223 209 204 211 224 223 222 227 227 223 221 222 223 223 225 226 226 226 225 223 224 228 233 233 230 228 227 231 239 240 238 235 231 231 231 228 228 233 237 238 237 238 241 243 243 241 234 228 227 228 231 236 241 246 247 247 246 246 247 249 251 249 246 246 249 253 257 260 262 266 263 254 254
6 7 7 0 339 324 327 343 354 348 333 331 321 246 217 208 200 199 211 227 229 226 228 229 226 225 226 226 226 227 228 228 230 230 229 230 231 234 236 236 234 234 238 241 238 232 227 222 223 229 229 227 231 238 243 243 241 242 244 245 244 241 238 235 233 233 234 237 243 248 250 250 249 249 249 250 250 249 249 251 253 255 257 260 264 262 260 265
10 7 9 13 5 345 339 3 14 8 350 344 359 209 202 198 200 207 221 236 241 235 231 231 228 226 225 225 227 229 229 229 230 229 229 231 233 235 239 241 240 241 243 240 229 224 225 225 225 230 231 229 230 234 239 241 241 242 245 247 247 246 244 243 241 238 235 234 239 246 249 250 251 251 248 247 248 251 253 253 254 254 254 255 257 258 261 264